Time,TemperatureF,DewpointF,PressureIn,WindDirection,WindDirectionDegrees,WindSpeedMPH,WindSpeedGustMPH,Humidity,HourlyPrecipIn,Conditions,Clouds,dailyrainin,SoftwareType,DateUTC
2013-02-15 00:01:00,60.0,53.0,-100.00,NNE,25,1.0,7.0,77,0.00,,,0.00,,2013-02-15 10:01:00,
2013-02-15 00:11:00,62.0,55.0,-100.00,West,274,0.0,7.0,77,0.00,,,0.00,,2013-02-15 10:11:00,
2013-02-15 00:42:00,62.0,55.0,-100.00,West,274,0.0,7.0,77,0.00,,,0.00,,2013-02-15 10:42:00,
2013-02-15 00:52:00,62.0,55.0,-100.00,West,274,0.0,7.0,77,0.00,,,0.00,,2013-02-15 10:52:00,
2013-02-15 01:01:00,62.0,55.0,-100.00,West,274,0.0,7.0,77,0.00,,,0.00,,2013-02-15 11:01:00,
2013-02-15 01:11:00,60.0,52.0,-100.00,NE,51,0.0,5.0,75,0.00,,,0.00,,2013-02-15 11:11:00,
2013-02-15 01:32:00,60.0,52.0,-100.00,NE,51,0.0,5.0,75,0.00,,,0.00,,2013-02-15 11:32:00,
2013-02-15 01:42:00,60.0,52.0,-100.00,NE,51,0.0,5.0,75,0.00,,,0.00,,2013-02-15 11:42:00,
2013-02-15 01:52:00,60.0,52.0,-100.00,NE,51,0.0,5.0,75,0.00,,,0.00,,2013-02-15 11:52:00,
2013-02-15 02:01:00,60.0,52.0,-100.00,NE,51,0.0,5.0,75,0.00,,,0.00,,2013-02-15 12:01:00,
2013-02-15 02:11:00,60.0,51.0,-100.00,ESE,113,0.0,5.0,73,0.00,,,0.00,,2013-02-15 12:11:00,
2013-02-15 02:32:00,60.0,51.0,-100.00,ESE,113,0.0,5.0,73,0.00,,,0.00,,2013-02-15 12:32:00,
2013-02-15 02:42:00,60.0,51.0,-100.00,ESE,113,0.0,5.0,73,0.00,,,0.00,,2013-02-15 12:42:00,
2013-02-15 02:52:00,60.0,51.0,-100.00,ESE,113,0.0,5.0,73,0.00,,,0.00,,2013-02-15 12:52:00,
2013-02-15 03:02:00,60.0,51.0,-100.00,ESE,113,0.0,5.0,73,0.00,,,0.00,,2013-02-15 13:02:00,
2013-02-15 03:11:00,59.0,48.0,-100.00,East,97,3.0,6.0,67,0.00,,,-99.99,,2013-02-15 13:11:00,
2013-02-15 03:42:00,59.0,48.0,-100.00,East,97,3.0,6.0,67,0.00,,,-99.99,,2013-02-15 13:42:00,
2013-02-15 03:52:00,59.0,48.0,-100.00,East,97,3.0,6.0,67,0.00,,,-99.99,,2013-02-15 13:52:00,
2013-02-15 04:01:00,59.0,48.0,-100.00,East,97,3.0,6.0,67,0.00,,,-99.99,,2013-02-15 14:01:00,
2013-02-15 04:11:00,60.0,50.0,-100.00,ESE,119,1.0,6.0,69,0.00,,,0.00,,2013-02-15 14:11:00,
2013-02-15 04:42:00,60.0,50.0,-100.00,ESE,119,1.0,6.0,69,0.00,,,0.00,,2013-02-15 14:42:00,
2013-02-15 04:52:00,60.0,50.0,-100.00,ESE,119,1.0,6.0,69,0.00,,,0.00,,2013-02-15 14:52:00,
2013-02-15 05:01:00,60.0,50.0,-100.00,ESE,119,1.0,6.0,69,0.00,,,0.00,,2013-02-15 15:01:00,
2013-02-15 05:11:00,58.0,49.0,-100.00,ESE,115,0.0,7.0,72,0.00,,,0.00,,2013-02-15 15:11:00,
2013-02-15 05:32:00,58.0,49.0,-100.00,ESE,115,0.0,7.0,72,0.00,,,0.00,,2013-02-15 15:32:00,
2013-02-15 05:42:00,58.0,49.0,-100.00,ESE,115,0.0,7.0,72,0.00,,,0.00,,2013-02-15 15:42:00,
2013-02-15 05:52:00,58.0,49.0,-100.00,ESE,115,0.0,7.0,72,0.00,,,0.00,,2013-02-15 15:52:00,
2013-02-15 06:01:00,58.0,49.0,-100.00,ESE,115,0.0,7.0,72,0.00,,,0.00,,2013-02-15 16:01:00,
2013-02-15 06:11:00,61.0,51.0,-100.00,NNW,335,0.0,6.0,70,0.00,,,0.00,,2013-02-15 16:11:00,
2013-02-15 06:32:00,61.0,51.0,-100.00,NNW,335,0.0,6.0,70,0.00,,,0.00,,2013-02-15 16:32:00,
2013-02-15 06:43:00,61.0,51.0,-100.00,NNW,335,0.0,6.0,70,0.00,,,0.00,,2013-02-15 16:43:00,
2013-02-15 06:52:00,61.0,51.0,-100.00,NNW,335,0.0,6.0,70,0.00,,,0.00,,2013-02-15 16:52:00,
2013-02-15 07:01:00,61.0,51.0,-100.00,NNW,335,0.0,6.0,70,0.00,,,0.00,,2013-02-15 17:01:00,
2013-02-15 07:11:00,60.0,51.0,-100.00,SSW,193,2.0,4.0,72,0.00,,,0.00,,2013-02-15 17:11:00,
2013-02-15 07:32:00,60.0,51.0,-100.00,SSW,193,2.0,4.0,72,0.00,,,0.00,,2013-02-15 17:32:00,
2013-02-15 07:42:00,60.0,51.0,-100.00,SSW,193,2.0,4.0,72,0.00,,,0.00,,2013-02-15 17:42:00,
2013-02-15 07:52:00,60.0,51.0,-100.00,SSW,193,2.0,4.0,72,0.00,,,0.00,,2013-02-15 17:52:00,
2013-02-15 08:01:00,60.0,51.0,-100.00,SSW,193,2.0,4.0,72,0.00,,,0.00,,2013-02-15 18:01:00,
2013-02-15 08:11:00,62.0,55.0,-100.00,SSE,159,0.0,4.0,79,0.00,,,0.00,,2013-02-15 18:11:00,
2013-02-15 08:42:00,62.0,55.0,-100.00,SSE,159,0.0,4.0,79,0.00,,,0.00,,2013-02-15 18:42:00,
2013-02-15 08:52:00,62.0,55.0,-100.00,SSE,159,0.0,4.0,79,0.00,,,0.00,,2013-02-15 18:52:00,
2013-02-15 09:01:00,62.0,55.0,-100.00,SSE,159,0.0,4.0,79,0.00,,,0.00,,2013-02-15 19:01:00,
2013-02-15 09:11:00,71.0,58.0,-100.00,South,180,0.0,4.0,64,0.00,,,0.00,,2013-02-15 19:11:00,
2013-02-15 09:42:00,71.0,58.0,-100.00,South,180,0.0,4.0,64,0.00,,,0.00,,2013-02-15 19:42:00,
2013-02-15 09:52:00,71.0,58.0,-100.00,South,180,0.0,4.0,64,0.00,,,0.00,,2013-02-15 19:52:00,
2013-02-15 10:01:00,71.0,58.0,-100.00,South,180,0.0,4.0,64,0.00,,,0.00,,2013-02-15 20:01:00,
2013-02-15 10:11:00,71.0,58.0,-100.00,WSW,256,0.0,6.0,64,0.00,,,0.00,,2013-02-15 20:11:00,
2013-02-15 10:42:00,71.0,58.0,-100.00,WSW,256,0.0,6.0,64,0.00,,,0.00,,2013-02-15 20:42:00,
2013-02-15 10:52:00,71.0,58.0,-100.00,WSW,256,0.0,6.0,64,0.00,,,0.00,,2013-02-15 20:52:00,
2013-02-15 11:01:00,71.0,58.0,-100.00,WSW,256,0.0,6.0,64,0.00,,,0.00,,2013-02-15 21:01:00,
2013-02-15 11:11:00,71.0,59.0,-100.00,NNW,333,0.0,6.0,66,0.00,,,0.00,,2013-02-15 21:11:00,
2013-02-15 11:42:00,71.0,59.0,-100.00,NNW,333,0.0,6.0,66,0.00,,,0.00,,2013-02-15 21:42:00,
2013-02-15 11:52:00,71.0,59.0,-100.00,NNW,333,0.0,6.0,66,0.00,,,0.00,,2013-02-15 21:52:00,
2013-02-15 12:02:00,71.0,59.0,-100.00,NNW,333,0.0,6.0,66,0.00,,,0.00,,2013-02-15 22:02:00,
2013-02-15 12:11:00,73.0,61.0,-100.00,West,262,0.0,7.0,66,0.00,,,0.00,,2013-02-15 22:11:00,
2013-02-15 12:42:00,73.0,61.0,-100.00,West,262,0.0,7.0,66,0.00,,,0.00,,2013-02-15 22:42:00,
2013-02-15 12:52:00,73.0,61.0,-100.00,West,262,0.0,7.0,66,0.00,,,0.00,,2013-02-15 22:52:00,
2013-02-15 13:02:00,73.0,61.0,-100.00,West,262,0.0,7.0,66,0.00,,,0.00,,2013-02-15 23:02:00,
2013-02-15 13:11:00,71.0,57.0,-100.00,WNW,296,0.0,6.0,62,0.00,,,-99.99,,2013-02-15 23:11:00,
2013-02-15 13:32:00,71.0,57.0,-100.00,WNW,296,0.0,6.0,62,0.00,,,-99.99,,2013-02-15 23:32:00,
2013-02-15 13:42:00,71.0,57.0,-100.00,WNW,296,0.0,6.0,62,0.00,,,-99.99,,2013-02-15 23:42:00,
2013-02-15 13:52:00,71.0,57.0,-100.00,WNW,296,0.0,6.0,62,0.00,,,-99.99,,2013-02-15 23:52:00,
2013-02-15 14:02:00,71.0,57.0,-100.00,WNW,296,0.0,6.0,62,0.00,,,-99.99,,2013-02-16 00:02:00,
2013-02-15 14:11:00,75.0,57.0,-100.00,SW,222,4.0,9.0,53,0.00,,,0.00,,2013-02-16 00:11:00,
2013-02-15 14:32:00,75.0,57.0,-100.00,SW,222,4.0,9.0,53,0.00,,,0.00,,2013-02-16 00:32:00,
2013-02-15 14:42:00,75.0,57.0,-100.00,SW,222,4.0,9.0,53,0.00,,,0.00,,2013-02-16 00:42:00,
2013-02-15 14:52:00,75.0,57.0,-100.00,SW,222,4.0,9.0,53,0.00,,,0.00,,2013-02-16 00:52:00,
2013-02-15 15:02:00,75.0,57.0,-100.00,SW,222,4.0,9.0,53,0.00,,,0.00,,2013-02-16 01:02:00,
2013-02-15 15:11:00,77.0,60.0,-100.00,SW,226,4.0,9.0,55,0.00,,,-99.99,,2013-02-16 01:11:00,
2013-02-15 15:32:00,77.0,60.0,-100.00,SW,226,4.0,9.0,55,0.00,,,-99.99,,2013-02-16 01:32:00,
2013-02-15 15:42:00,77.0,60.0,-100.00,SW,226,4.0,9.0,55,0.00,,,-99.99,,2013-02-16 01:42:00,
2013-02-15 15:52:00,77.0,60.0,-100.00,SW,226,4.0,9.0,55,0.00,,,-99.99,,2013-02-16 01:52:00,
2013-02-15 16:01:00,77.0,60.0,-100.00,SW,226,4.0,9.0,55,0.00,,,-99.99,,2013-02-16 02:01:00,
2013-02-15 16:11:00,73.0,59.0,-100.00,WSW,241,4.0,10.0,62,0.00,,,0.00,,2013-02-16 02:11:00,
2013-02-15 16:42:00,73.0,59.0,-100.00,WSW,241,4.0,10.0,62,0.00,,,0.00,,2013-02-16 02:42:00,
2013-02-15 16:52:00,73.0,59.0,-100.00,WSW,241,4.0,10.0,62,0.00,,,0.00,,2013-02-16 02:52:00,
2013-02-15 17:01:00,73.0,59.0,-100.00,WSW,241,4.0,10.0,62,0.00,,,0.00,,2013-02-16 03:01:00,
2013-02-15 17:11:00,77.0,59.0,-100.00,SW,229,3.0,9.0,53,0.00,,,0.00,,2013-02-16 03:11:00,
2013-02-15 17:42:00,77.0,59.0,-100.00,SW,229,3.0,9.0,53,0.00,,,0.00,,2013-02-16 03:42:00,
2013-02-15 17:52:00,77.0,59.0,-100.00,SW,229,3.0,9.0,53,0.00,,,0.00,,2013-02-16 03:52:00,
2013-02-15 18:01:00,77.0,59.0,-100.00,SW,229,3.0,9.0,53,0.00,,,0.00,,2013-02-16 04:01:00,
2013-02-15 18:11:00,71.0,59.0,-100.00,WSW,245,3.0,8.0,65,0.00,,,0.00,,2013-02-16 04:11:00,
2013-02-15 18:32:00,71.0,59.0,-100.00,WSW,245,3.0,8.0,65,0.00,,,0.00,,2013-02-16 04:32:00,
2013-02-15 18:42:00,71.0,59.0,-100.00,WSW,245,3.0,8.0,65,0.00,,,0.00,,2013-02-16 04:42:00,
2013-02-15 18:52:00,71.0,59.0,-100.00,WSW,245,3.0,8.0,65,0.00,,,0.00,,2013-02-16 04:52:00,
2013-02-15 19:01:00,71.0,59.0,-100.00,WSW,245,3.0,8.0,65,0.00,,,0.00,,2013-02-16 05:01:00,
2013-02-15 19:11:00,63.0,57.0,-100.00,NE,51,0.0,5.0,81,0.00,,,0.00,,2013-02-16 05:11:00,
2013-02-15 19:32:00,63.0,57.0,-100.00,NE,51,0.0,5.0,81,0.00,,,0.00,,2013-02-16 05:32:00,
2013-02-15 19:42:00,63.0,57.0,-100.00,NE,51,0.0,5.0,81,0.00,,,0.00,,2013-02-16 05:42:00,
2013-02-15 19:52:00,63.0,57.0,-100.00,NE,51,0.0,5.0,81,0.00,,,0.00,,2013-02-16 05:52:00,
2013-02-15 20:01:00,63.0,57.0,-100.00,NE,51,0.0,5.0,81,0.00,,,0.00,,2013-02-16 06:01:00,
2013-02-15 20:11:00,62.0,53.0,-100.00,ESE,113,0.0,5.0,72,0.00,,,0.00,,2013-02-16 06:11:00,
2013-02-15 20:42:00,62.0,53.0,-100.00,ESE,113,0.0,5.0,72,0.00,,,0.00,,2013-02-16 06:42:00,
2013-02-15 20:52:00,62.0,53.0,-100.00,ESE,113,0.0,5.0,72,0.00,,,0.00,,2013-02-16 06:52:00,
2013-02-15 21:02:00,62.0,53.0,-100.00,ESE,113,0.0,5.0,72,0.00,,,0.00,,2013-02-16 07:02:00,
2013-02-15 21:11:00,64.0,56.0,-100.00,NW,318,0.0,5.0,75,0.00,,,0.00,,2013-02-16 07:11:00,
2013-02-15 21:32:00,64.0,56.0,-100.00,NW,318,0.0,5.0,75,0.00,,,0.00,,2013-02-16 07:32:00,
2013-02-15 21:42:00,64.0,56.0,-100.00,NW,318,0.0,5.0,75,0.00,,,0.00,,2013-02-16 07:42:00,
2013-02-15 21:53:00,64.0,56.0,-100.00,NW,318,0.0,5.0,75,0.00,,,0.00,,2013-02-16 07:53:00,
2013-02-15 22:01:00,64.0,56.0,-100.00,NW,318,0.0,5.0,75,0.00,,,0.00,,2013-02-16 08:01:00,
2013-02-15 22:11:00,63.0,56.0,-100.00,ESE,102,0.0,3.0,79,0.00,,,0.00,,2013-02-16 08:11:00,
2013-02-15 22:32:00,63.0,56.0,-100.00,ESE,102,0.0,3.0,79,0.00,,,0.00,,2013-02-16 08:32:00,
2013-02-15 22:42:00,63.0,56.0,-100.00,ESE,102,0.0,3.0,79,0.00,,,0.00,,2013-02-16 08:42:00,
2013-02-15 22:52:00,63.0,56.0,-100.00,ESE,102,0.0,3.0,79,0.00,,,0.00,,2013-02-16 08:52:00,
2013-02-15 23:01:00,63.0,56.0,-100.00,ESE,102,0.0,3.0,79,0.00,,,0.00,,2013-02-16 09:01:00,
2013-02-15 23:11:00,66.0,55.0,-100.00,East,94,3.0,8.0,68,0.00,,,0.00,,2013-02-16 09:11:00,
2013-02-15 23:42:00,66.0,55.0,-100.00,East,94,3.0,8.0,68,0.00,,,0.00,,2013-02-16 09:42:00,
2013-02-15 23:52:00,66.0,55.0,-100.00,East,94,3.0,8.0,68,0.00,,,0.00,,2013-02-16 09:52:00,